Home   Weather   Rastatt   Past weeks

Flag for Germany Past Weather in Rastatt, Baden-Württemberg, Germany — Yesterday and Last 2 Weeks

Now
64 °F

Sunny.


Feels Like: 64 °F
Forecast: 55 / 65 °F
Wind: 10 mph from Southwest

Location: Karlsruhe - Baden Wurttemberg

Current Time: Sep 30, 2016 at 10:26:26 AM

Latest Report: Sep 30, 2016 at 9:50 AM


Visibility: 10 mi

Pressure: 30.01 "Hg

Humidity: 56%

Dew Point: 48 °F

Location of RastattLocation

Past Weather in Rastatt — Graph

°F

Rastatt Temperature Yesterday

Maximum temperature yesterday: 79 °F (at 3:20 PM)
Minimum temperature yesterday: 54 °F (at 4:20 AM)
Average temperature yesterday: 67 °F

High & Low Weather Summary for the Past Weeks

 TemperatureHumidityPressure
High79 °F (Sep 25, 5:20 PM)100% (Sep 16, 10:50 PM)30.42 "Hg (Sep 16, 10:50 PM)
Low39 °F (Sep 22, 7:50 AM)36% (Sep 29, 6:20 PM)29.80 "Hg (Sep 15, 8:20 AM)
Average61 °F78%30.12 "Hg
* Reported Sep 15 8:20 AM — Sep 30 8:50 AM, Rastatt, Weather by CustomWeather, © 2016

Note: Actual official high and low records may vary slightly from our data, if they occured in-between our weather recording intervals... More about our weather records

Advertising

Rastatt Weather History for the Previous 24 Hours

Scroll right to see more
 ConditionsComfort  
Time TempWeatherWind HumidityBarometerVisibility
8:50 AM
Fri, Sep 30
64 °FSunny.8 mph56%29.98 "Hg10 mi
8:20 AM63 °FSunny.10 mph59%29.98 "Hg10 mi
7:50 AM63 °FSunny.9 mph59%29.98 "Hg10 mi
7:20 AM63 °FClear.10 mph59%29.98 "Hg10 mi
6:50 AM63 °FClear.9 mph59%29.98 "Hg10 mi
6:20 AM63 °FClear.9 mph59%29.98 "Hg10 mi
5:50 AM63 °FClear.10 mph59%29.98 "Hg10 mi
5:20 AM64 °FClear.10 mph56%29.98 "Hg10 mi
4:50 AM61 °FClear.9 mph68%29.98 "Hg10 mi
4:20 AM61 °FClear.10 mph68%29.98 "Hg10 mi
2:50 AM59 °FClear.8 mph77%30.01 "Hg10 mi
1:50 AM59 °FClear.8 mph77%30.01 "Hg10 mi
1:20 AM59 °FClear.7 mph77%30.04 "Hg10 mi
12:50 AM59 °FClear.6 mph77%30.04 "Hg10 mi
12:20 AM59 °FClear.7 mph77%30.04 "Hg10 mi
11:50 PM
Thu, Sep 29
63 °FClear.9 mph68%30.04 "Hg10 mi
11:20 PM63 °FClear.9 mph68%30.04 "Hg10 mi
10:50 PM63 °FClear.7 mph68%30.04 "Hg10 mi
10:20 PM63 °FClear.7 mph68%30.04 "Hg10 mi
9:50 PM63 °FClear.7 mph68%30.04 "Hg10 mi
9:20 PM61 °FClear.7 mph72%30.04 "Hg10 mi
8:50 PM64 °FClear.6 mph60%30.04 "Hg10 mi
8:20 PM64 °FClear.7 mph60%30.04 "Hg10 mi
7:50 PM66 °FClear.8 mph56%30.04 "Hg10 mi
7:20 PM72 °FClear.9 mph44%30.04 "Hg10 mi
6:50 PM73 °FSunny.10 mph41%30.04 "Hg10 mi
6:20 PM77 °FSunny.10 mph36%30.04 "Hg10 mi
5:50 PM79 °FSunny.12 mph37%30.04 "Hg10 mi
5:20 PM79 °FSunny.14 mph45%30.04 "Hg10 mi
4:50 PM79 °FSunny.17 mph42%30.07 "Hg10 mi
4:20 PM79 °FSunny.15 mph42%30.07 "Hg10 mi
3:50 PM79 °FSunny.16 mph42%30.07 "Hg10 mi
3:20 PM79 °FPassing clouds.16 mph42%30.09 "HgN/A
2:50 PM77 °FSunny.16 mph44%30.09 "Hg10 mi
2:20 PM77 °FSunny.14 mph44%30.12 "Hg10 mi
1:50 PM77 °FSunny.15 mph44%30.15 "Hg10 mi
1:20 PM75 °FPassing clouds.15 mph47%30.15 "HgN/A
12:50 PM73 °FSunny.14 mph50%30.18 "Hg10 mi
12:20 PM73 °FSunny.15 mph53%30.18 "Hg10 mi
11:50 AM72 °FSunny.14 mph57%30.18 "Hg10 mi
11:20 AM70 °FPassing clouds.13 mph64%30.21 "HgN/A
10:50 AM68 °FSunny.15 mph69%30.21 "Hg10 mi
10:20 AM66 °FSunny.14 mph73%30.21 "Hg10 mi
Weather by CustomWeather, © 2016

See weather overviewHow to use our weather pages